Time,TemperatureF,DewpointF,PressureIn,WindDirection,WindDirectionDegrees,WindSpeedMPH,WindSpeedGustMPH,Humidity,HourlyPrecipIn,Conditions,Clouds,dailyrainin,SoftwareType,DateUTC
2013-02-24 00:08:00,37.0,-55.0,29.66,NE,45,7.8,-999.0,1,-99.99,,,0.00,Acu-Link.com,2013-02-24 05:08:00,
2013-02-24 00:24:00,37.0,-55.0,29.65,NNE,22,3.7,-999.0,1,-99.99,,,0.00,Acu-Link.com,2013-02-24 05:24:00,
2013-02-24 00:39:00,37.0,-55.0,29.66,NE,45,7.8,-999.0,1,-99.99,,,0.00,Acu-Link.com,2013-02-24 05:39:00,
2013-02-24 00:54:00,37.0,-55.0,29.64,NE,45,3.2,-999.0,1,-99.99,,,0.00,Acu-Link.com,2013-02-24 05:54:00,
2013-02-24 01:10:00,37.0,-55.0,29.64,NNW,337,4.2,-999.0,1,-99.99,,,0.00,Acu-Link.com,2013-02-24 06:10:00,
2013-02-24 01:25:00,37.2,-54.8,29.64,ENE,67,6.3,-999.0,1,-99.99,,,0.00,Acu-Link.com,2013-02-24 06:25:00,
2013-02-24 01:40:00,37.2,-54.8,29.63,NNE,22,0.0,-999.0,1,-99.99,,,0.00,Acu-Link.com,2013-02-24 06:40:00,
2013-02-24 01:55:00,37.2,-54.8,29.64,ENE,67,4.2,-999.0,1,-99.99,,,0.00,Acu-Link.com,2013-02-24 06:55:00,
2013-02-24 02:10:00,37.4,-54.7,29.64,West,270,0.0,-999.0,1,-99.99,,,0.00,Acu-Link.com,2013-02-24 07:10:00,
2013-02-24 02:25:00,37.4,-54.7,29.64,NE,45,0.0,-999.0,1,-99.99,,,0.00,Acu-Link.com,2013-02-24 07:25:00,
2013-02-24 02:41:00,37.4,-54.7,29.63,NW,315,0.0,-999.0,1,-99.99,,,0.00,Acu-Link.com,2013-02-24 07:41:00,
2013-02-24 02:56:00,37.4,-54.7,29.63,North,0,1.7,-999.0,1,-99.99,,,0.00,Acu-Link.com,2013-02-24 07:56:00,
2013-02-24 03:11:00,37.4,-54.7,29.62,North,0,4.7,-999.0,1,-99.99,,,0.00,Acu-Link.com,2013-02-24 08:11:00,
2013-02-24 03:27:00,37.4,-54.7,29.61,NE,45,3.2,-999.0,1,-99.99,,,0.00,Acu-Link.com,2013-02-24 08:27:00,
2013-02-24 03:42:00,37.6,-54.6,29.60,West,270,3.7,-999.0,1,-99.99,,,0.00,Acu-Link.com,2013-02-24 08:42:00,
2013-02-24 03:57:00,37.6,-54.6,29.61,West,270,0.0,-999.0,1,-99.99,,,0.00,Acu-Link.com,2013-02-24 08:57:00,
2013-02-24 04:18:00,37.6,-54.6,29.63,West,270,0.0,-999.0,1,-99.99,,,0.00,Acu-Link.com,2013-02-24 09:18:00,
2013-02-24 04:33:00,37.9,-54.4,29.62,West,270,1.7,-999.0,1,-99.99,,,0.00,Acu-Link.com,2013-02-24 09:33:00,
2013-02-24 04:48:00,38.1,-54.3,29.62,West,270,0.0,-999.0,1,-99.99,,,0.00,Acu-Link.com,2013-02-24 09:48:00,
2013-02-24 05:04:00,38.1,-54.3,29.62,East,90,1.7,-999.0,1,-99.99,,,0.00,Acu-Link.com,2013-02-24 10:04:00,
2013-02-24 05:19:00,38.1,-54.3,29.63,NE,45,2.7,-999.0,1,-99.99,,,0.00,Acu-Link.com,2013-02-24 10:19:00,
2013-02-24 05:34:00,37.9,-54.4,29.62,ENE,67,3.7,-999.0,1,-99.99,,,0.00,Acu-Link.com,2013-02-24 10:34:00,
2013-02-24 05:49:00,37.8,-54.5,29.61,ENE,67,2.7,-999.0,1,-99.99,,,0.00,Acu-Link.com,2013-02-24 10:49:00,
2013-02-24 06:04:00,37.8,-54.5,29.61,East,90,0.0,-999.0,1,-99.99,,,0.00,Acu-Link.com,2013-02-24 11:04:00,
2013-02-24 06:20:00,37.6,-54.6,29.59,NNE,22,0.0,-999.0,1,-99.99,,,0.00,Acu-Link.com,2013-02-24 11:20:00,
2013-02-24 06:35:00,37.2,-54.8,29.60,NE,45,2.2,-999.0,1,-99.99,,,0.00,Acu-Link.com,2013-02-24 11:35:00,
2013-02-24 06:50:00,37.2,-54.8,29.60,NE,45,0.0,-999.0,1,-99.99,,,0.00,Acu-Link.com,2013-02-24 11:50:00,
2013-02-24 07:05:00,37.0,-55.0,29.60,North,0,4.2,-999.0,1,-99.99,,,0.00,Acu-Link.com,2013-02-24 12:05:00,
2013-02-24 07:20:00,36.9,-55.0,29.58,WNW,292,0.0,-999.0,1,-99.99,,,0.00,Acu-Link.com,2013-02-24 12:20:00,
2013-02-24 07:36:00,36.9,-55.0,29.59,NW,315,0.0,-999.0,1,-99.99,,,0.00,Acu-Link.com,2013-02-24 12:36:00,
2013-02-24 07:51:00,36.7,-55.1,29.58,West,270,2.7,-999.0,1,-99.99,,,0.00,Acu-Link.com,2013-02-24 12:51:00,
2013-02-24 08:06:00,37.0,-55.0,29.59,NNE,22,3.2,-999.0,1,-99.99,,,0.00,Acu-Link.com,2013-02-24 13:06:00,
2013-02-24 08:21:00,37.2,-54.8,29.58,NNW,337,0.0,-999.0,1,-99.99,,,0.00,Acu-Link.com,2013-02-24 13:21:00,
2013-02-24 08:36:00,38.1,-54.3,29.58,NE,45,0.0,-999.0,1,-99.99,,,0.00,Acu-Link.com,2013-02-24 13:36:00,
2013-02-24 08:52:00,38.3,-54.2,29.60,ENE,67,2.7,-999.0,1,-99.99,,,0.00,Acu-Link.com,2013-02-24 13:52:00,
2013-02-24 09:07:00,37.8,-54.5,29.60,ENE,67,3.7,-999.0,1,-99.99,,,0.00,Acu-Link.com,2013-02-24 14:07:00,
2013-02-24 09:22:00,38.1,-54.3,29.59,NNE,22,0.0,-999.0,1,-99.99,,,0.00,Acu-Link.com,2013-02-24 14:22:00,
2013-02-24 09:38:00,38.1,-54.3,29.58,SW,225,1.7,-999.0,1,-99.99,,,0.00,Acu-Link.com,2013-02-24 14:38:00,
2013-02-24 09:53:00,38.1,-54.3,29.59,NE,45,2.7,-999.0,1,-99.99,,,0.00,Acu-Link.com,2013-02-24 14:53:00,
2013-02-24 10:08:00,38.8,-53.8,29.58,WSW,247,5.8,-999.0,1,-99.99,,,0.00,Acu-Link.com,2013-02-24 15:08:00,
2013-02-24 10:23:00,38.7,-53.9,29.58,NE,45,3.7,-999.0,1,-99.99,,,0.00,Acu-Link.com,2013-02-24 15:23:00,
2013-02-24 10:38:00,38.3,-54.2,29.58,North,0,2.2,-999.0,1,-99.99,,,0.00,Acu-Link.com,2013-02-24 15:38:00,
2013-02-24 10:54:00,41.0,-52.5,29.60,WSW,247,3.2,-999.0,1,-99.99,,,0.00,Acu-Link.com,2013-02-24 15:54:00,
2013-02-24 11:09:00,39.2,-53.6,29.59,NNW,337,0.0,-999.0,1,-99.99,,,0.00,Acu-Link.com,2013-02-24 16:09:00,
2013-02-24 11:24:00,39.4,-53.5,29.59,North,0,0.0,-999.0,1,-99.99,,,0.00,Acu-Link.com,2013-02-24 16:24:00,
2013-02-24 11:39:00,39.2,-53.6,29.57,North,0,0.0,-999.0,1,-99.99,,,0.00,Acu-Link.com,2013-02-24 16:39:00,
2013-02-24 11:54:00,39.2,-53.6,29.59,NNE,22,0.0,-999.0,1,-99.99,,,0.00,Acu-Link.com,2013-02-24 16:54:00,
2013-02-24 12:09:00,40.1,-53.0,29.59,North,0,3.7,-999.0,1,-99.99,,,0.00,Acu-Link.com,2013-02-24 17:09:00,
2013-02-24 12:25:00,40.5,-52.8,29.59,South,180,0.0,-999.0,1,-99.99,,,0.00,Acu-Link.com,2013-02-24 17:25:00,
2013-02-24 12:40:00,40.8,-52.6,29.58,SW,225,0.0,-999.0,1,-99.99,,,0.00,Acu-Link.com,2013-02-24 17:40:00,
2013-02-24 12:55:00,40.5,-52.8,29.56,West,270,0.0,-999.0,1,-99.99,,,0.00,Acu-Link.com,2013-02-24 17:55:00,
2013-02-24 13:11:00,40.1,-53.0,29.58,SW,225,0.0,-999.0,1,-99.99,,,0.00,Acu-Link.com,2013-02-24 18:11:00,
2013-02-24 13:26:00,40.1,-53.0,29.57,West,270,3.7,-999.0,1,-99.99,,,0.00,Acu-Link.com,2013-02-24 18:26:00,
2013-02-24 13:41:00,40.5,-52.8,29.58,West,270,2.2,-999.0,1,-99.99,,,0.00,Acu-Link.com,2013-02-24 18:41:00,
2013-02-24 13:56:00,39.7,-4.1,29.56,ENE,67,4.2,-999.0,15,-99.99,,,0.00,Acu-Link.com,2013-02-24 18:56:00,
2013-02-24 14:11:00,39.9,5.1,29.57,North,0,4.2,-999.0,23,-99.99,,,0.00,Acu-Link.com,2013-02-24 19:11:00,
2013-02-24 14:26:00,40.3,16.1,29.56,West,270,4.7,-999.0,37,-99.99,,,0.00,Acu-Link.com,2013-02-24 19:26:00,
2013-02-24 14:42:00,40.3,24.1,29.59,SW,225,1.1,-999.0,52,-99.99,,,0.00,Acu-Link.com,2013-02-24 19:42:00,
2013-02-24 14:57:00,40.3,32.3,29.59,SW,225,2.2,-999.0,73,-99.99,,,0.00,Acu-Link.com,2013-02-24 19:57:00,
2013-02-24 15:12:00,40.5,36.1,29.58,North,0,0.0,-999.0,84,-99.99,,,0.00,Acu-Link.com,2013-02-24 20:12:00,
2013-02-24 15:28:00,40.1,37.4,29.58,NNE,22,1.1,-999.0,90,-99.99,,,0.00,Acu-Link.com,2013-02-24 20:28:00,
2013-02-24 15:43:00,40.5,40.0,29.57,SSE,157,0.0,-999.0,98,-99.99,,,0.00,Acu-Link.com,2013-02-24 20:43:00,
2013-02-24 15:58:00,40.6,40.1,29.59,South,180,0.0,-999.0,98,-99.99,,,0.00,Acu-Link.com,2013-02-24 20:58:00,
2013-02-24 16:14:00,40.1,39.6,29.60,NNE,22,0.0,-999.0,98,-99.99,,,0.00,Acu-Link.com,2013-02-24 21:14:00,
2013-02-24 16:29:00,39.9,39.4,29.60,West,270,0.0,-999.0,98,-99.99,,,0.00,Acu-Link.com,2013-02-24 21:29:00,
2013-02-24 16:44:00,39.6,39.1,29.62,WNW,292,0.0,-999.0,98,-99.99,,,0.00,Acu-Link.com,2013-02-24 21:44:00,
2013-02-24 16:59:00,38.3,37.8,29.62,West,270,2.2,-999.0,98,-99.99,,,0.00,Acu-Link.com,2013-02-24 21:59:00,
2013-02-24 17:15:00,37.2,36.7,29.63,West,270,2.7,-999.0,98,-99.99,,,0.00,Acu-Link.com,2013-02-24 22:15:00,
2013-02-24 17:30:00,36.1,35.6,29.64,WSW,247,2.2,-999.0,98,-99.99,,,0.00,Acu-Link.com,2013-02-24 22:30:00,
2013-02-24 17:45:00,35.6,35.1,29.66,West,270,4.7,-999.0,98,-99.99,,,0.00,Acu-Link.com,2013-02-24 22:45:00,
2013-02-24 18:00:00,35.6,35.1,29.66,West,270,0.0,-999.0,98,-99.99,,,0.00,Acu-Link.com,2013-02-24 23:00:00,
2013-02-24 18:16:00,35.6,35.1,29.65,North,0,0.0,-999.0,98,-99.99,,,0.00,Acu-Link.com,2013-02-24 23:16:00,
2013-02-24 18:31:00,35.2,34.7,29.68,WSW,247,2.2,-999.0,98,-99.99,,,0.00,Acu-Link.com,2013-02-24 23:31:00,
2013-02-24 18:46:00,35.1,34.6,29.67,NNW,337,6.8,-999.0,98,-99.99,,,0.01,Acu-Link.com,2013-02-24 23:46:00,
2013-02-24 19:02:00,34.9,34.4,29.71,SE,135,2.2,-999.0,98,-99.99,,,0.01,Acu-Link.com,2013-02-25 00:02:00,
2013-02-24 19:17:00,34.7,34.2,29.70,WSW,247,0.0,-999.0,98,-99.99,,,0.01,Acu-Link.com,2013-02-25 00:17:00,
2013-02-24 19:32:00,34.5,34.0,29.69,NW,315,1.7,-999.0,98,-99.99,,,0.01,Acu-Link.com,2013-02-25 00:32:00,
2013-02-24 19:47:00,33.8,33.3,29.72,South,180,3.2,-999.0,98,-99.99,,,0.01,Acu-Link.com,2013-02-25 00:47:00,
2013-02-24 20:03:00,32.4,31.9,29.72,SE,135,0.0,-999.0,98,-99.99,,,0.01,Acu-Link.com,2013-02-25 01:03:00,
2013-02-24 20:18:00,32.4,31.9,29.74,West,270,0.0,-999.0,98,-99.99,,,0.01,Acu-Link.com,2013-02-25 01:18:00,
2013-02-24 20:33:00,32.4,31.9,29.74,SE,135,2.2,-999.0,98,-99.99,,,0.01,Acu-Link.com,2013-02-25 01:33:00,
2013-02-24 20:49:00,32.0,31.5,29.74,WNW,292,3.2,-999.0,98,-99.99,,,0.01,Acu-Link.com,2013-02-25 01:49:00,
2013-02-24 21:04:00,31.8,29.5,29.75,West,270,0.0,-999.0,91,-99.99,,,0.01,Acu-Link.com,2013-02-25 02:04:00,
2013-02-24 21:19:00,31.6,25.8,29.76,West,270,1.1,-999.0,79,-99.99,,,0.01,Acu-Link.com,2013-02-25 02:19:00,
2013-02-24 21:35:00,31.8,24.8,29.76,SW,225,0.0,-999.0,75,-99.99,,,0.01,Acu-Link.com,2013-02-25 02:35:00,
2013-02-24 21:50:00,31.5,25.8,29.75,SSW,202,0.0,-999.0,79,-99.99,,,0.01,Acu-Link.com,2013-02-25 02:50:00,
2013-02-24 22:05:00,31.3,27.0,29.77,West,270,0.0,-999.0,84,-99.99,,,0.01,Acu-Link.com,2013-02-25 03:05:00,
2013-02-24 22:20:00,31.3,28.2,29.77,SW,225,0.0,-999.0,88,-99.99,,,0.01,Acu-Link.com,2013-02-25 03:20:00,
2013-02-24 22:35:00,31.3,28.4,29.77,West,270,0.0,-999.0,89,-99.99,,,0.01,Acu-Link.com,2013-02-25 03:35:00,
2013-02-24 22:51:00,31.5,28.9,29.76,West,270,0.0,-999.0,90,-99.99,,,0.01,Acu-Link.com,2013-02-25 03:51:00,
2013-02-24 23:06:00,31.8,30.3,29.77,SSW,202,0.0,-999.0,94,-99.99,,,0.01,Acu-Link.com,2013-02-25 04:06:00,
2013-02-24 23:22:00,32.0,31.5,29.76,SW,225,0.0,-999.0,98,-99.99,,,0.01,Acu-Link.com,2013-02-25 04:22:00,
2013-02-24 23:37:00,32.2,31.7,29.78,WSW,247,1.1,-999.0,98,-99.99,,,0.01,Acu-Link.com,2013-02-25 04:37:00,
2013-02-24 23:52:00,32.4,31.6,29.77,NNE,22,2.2,-999.0,97,-99.99,,,0.01,Acu-Link.com,2013-02-25 04:52:00,